Retour au catalogue

STARLINK-37708

ActifCommunicationsVLEO
NORAD 69469·PAYLOAD·🇺🇸 United States

Lancé Jun 8, 2026 depuis Cape Canaveral Space Force Station

Loading…

Prochains Passages (prochaines 24 heures)

TLE

FraisSource: CelesTrak SupGP

Époque: Sep 14, 2026, 23:33 UTC

1 69469C 26127AC  26257.98173611 -.00045368  00000+0 -13401-2 0  2575
2 69469  53.1574 191.5800 0001264  93.3697 274.8210 15.34421307    10

Suivez STARLINK-37708 en temps réel avec AllMySat

Download on the App Store